Temp
65 64 65 65 66 67 65 66 65 65 66 66 65 65 65 65 65 64 64 63 64 64 65 65 65 65 67 68 66 65 64 64 63 61 60 60 60 58 60 60 61 62 61 60 59 57 55 54 56 62 61 61 63 62 64 65 64 62 62 62 64 63 62
66 65 65 66 64 64 64 65 66 66 66 66 65 65 65 67 67 65 64 64 64 65 66 66 65 66 65 65 64 64 63 63 64 62 61 60 61 59 60 60 60 60 60 60 61 60 56 55 54 57 58 59 60 61 62 62 64 63 64 64 64 62 60
65 64 64 63 63 63 63 63 63 64 64 65 65 66 66 66 66 66 66 65 65 65 65 65 65 65 64 64 64 64 65 64 63 63 62 60 61 61 62 61 61 59 59 60 60 59 60 60 57 56 55 57 56 60 61 62 65 65 64 63 62 62 60
64 64 63 62 61 62 63 63 63 63 64 64 63 65 65 65 64 64 64 65 65 65 65 65 64 64 63 63 63 64 65 64 64 62 62 62 62 61 62 61 61 61 60 57 58 58 58 56 55 56 56 57 55 57 60 61 63 65 65 62 62 60 59
65 65 64 62 62 62 61 61 62 63 63 64 63 63 63 64 64 63 64 64 64 64 65 65 65 65 64 64 63 64 63 63 63 63 63 62 62 61 62 62 62 62 61 60 61 60 60 59 59 56 56 58 58 57 63 60 65 65 64 63 62 61 59
65 65 64 63 63 63 61 62 62 61 62 63 61 63 64 63 63 64 65 64 63 63 64 65 64 65 66 64 63 62 63 62 62 63 62 61 61 61 60 61 62 62 62 61 62 61 61 61 60 57 58 59 54 58 60 61 60 62 64 63 63 62 61
64 64 64 64 63 63 63 62 62 62 62 62 63 61 62 65 63 64 64 64 62 63 63 63 65 66 65 64 63 63 63 62 61 60 60 60 60 61 62 60 60 61 61 60 60 62 61 60 59 59 57 58 56 60 61 59 64 61 61 63 64 63 61
64 63 62 64 63 63 62 62 62 62 62 62 63 64 62 63 63 64 63 63 64 63 62 63 65 63 63 64 64 62 61 61 62 61 60 61 62 60 59 59 61 60 60 60 59 62 62 63 62 60 58 55 55 55 57 59 58 59 61 60 64 62 60
64 64 63 64 63 62 62 63 63 62 63 62 63 63 63 63 63 63 63 62 61 62 63 64 63 63 63 62 61 62 62 65 62 61 60 61 61 60 60 60 62 60 60 62 63 60 61 63 62 59 59 59 55 52 53 54 55 57 63 59 61 63 61
64 63 63 62 62 62 63 63 63 62 63 64 64 62 61 60 60 61 63 62 62 61 62 62 62 62 62 61 61 60 60 60 62 62 59 60 57 59 60 60 59 60 60 60 62 61 62 62 62 61 58 59 59 55 50 49 54 52 60 61 58 62 62
64 63 63 62 62 63 62 63 63 63 63 63 63 63 60 61 62 63 60 60 59 60 61 61 61 62 61 60 61 61 60 59 59 59 61 62 61 61 60 61 61 60 59 61 60 59 61 62 62 61 59 58 59 58 50 48 51 53 55 59 58 59 61
64 64 63 63 63 63 62 61 62 61 61 61 63 61 60 60 61 60 59 59 59 60 59 60 60 61 60 59 58 58 58 59 59 59 58 60 60 62 61 59 58 59 58 60 61 63 62 62 62 62 59 59 59 59 58 53 49 55 54 55 59 61 60
64 64 63 63 63 62 62 62 61 61 60 62 61 60 59 60 59 59 59 59 60 59 60 60 61 60 59 58 59 61 58 58 59 58 59 62 65 60 58 58 58 59 59 60 61 62 61 61 62 61 61 60 59 59 58 54 53 55 57 54 57 59 61
63 63 63 63 62 61 62 62 61 62 61 61 59 59 60 59 59 60 60 60 59 58 58 59 59 57 57 57 59 59 58 60 60 59 59 59 61 60 60 58 58 59 58 59 57 58 61 60 59 61 62 61 59 60 60 57 55 54 57 56 55 59 60
63 62 62 61 62 62 61 61 60 60 60 59 59 59 60 59 59 61 59 59 58 58 59 58 57 57 59 58 58 61 60 59 58 58 57 58 58 61 58 58 59 58 59 60 59 64 61 62 64 62 59 60 59 59 57 54 52 49 52 57 59 59 60
63 62 61 60 61 62 60 61 61 60 59 60 60 59 60 60 60 59 59 60 59 59 59 58 58 59 57 57 58 58 59 58 58 58 59 59 60 59 58 57 58 58 60 59 57 57 60 62 64 64 59 60 60 59 61 61 54 52 55 55 53 59 58
63 62 60 60 61 60 60 60 61 60 61 60 62 60 59 61 59 58 60 60 59 58 58 60 60 59 60 59 60 60 59 58 59 59 59 60 61 60 58 57 58 57 56 56 57 57 57 59 60 58 59 58 59 60 57 60 61 55 53 55 55 60 59
62 61 61 61 60 60 60 61 60 61 60 61 61 60 60 61 60 61 61 60 60 59 60 60 60 60 59 58 59 59 59 58 58 59 59 60 62 59 58 57 58 56 54 57 57 57 57 58 62 61 57 58 59 60 60 59 58 56 54 53 54 57 57
62 62 62 62 61 62 62 60 59 60 60 60 60 60 62 61 62 62 60 61 61 61 60 59 60 59 58 58 58 59 58 58 58 58 59 59 59 59 58 57 57 57 56 56 58 57 57 57 59 59 59 59 59 57 56 57 57 56 57 55 54 56 57
61 61 61 61 62 62 63 62 61 62 61 61 59 60 61 60 59 61 62 61 62 62 62 61 60 59 59 59 59 58 58 58 58 58 59 60 60 59 59 60 59 58 58 56 57 57 56 57 57 56 57 57 59 56 54 55 56 55 54 54 55 54 55
62 61 61 61 61 62 63 62 62 62 62 61 62 62 61 60 59 59 61 59 60 61 61 60 59 59 61 59 58 57 58 59 59 61 59 59 59 59 58 58 58 57 57 57 56 56 55 56 55 55 55 56 55 54 55 53 53 53 54 53 54 54 53
62 61 61 61 60 60 60 61 62 62 61 60 63 64 62 61 60 59 59 60 60 61 61 61 61 62 61 60 60 58 58 59 58 57 57 58 58 59 58 57 57 56 58 57 54 55 58 58 57 55 56 54 54 55 55 53 53 52 50 51 51 51 51
60 60 60 60 59 59 59 59 59 61 61 62 62 63 63 62 61 62 60 58 58 60 61 62 61 58 58 62 59 63 60 60 59 58 58 58 58 58 58 57 59 60 57 55 52 49 48 51 55 56 56 55 53 53 54 54 54 53 53 52 52 52 51
58 58 57 58 58 60 60 60 59 59 59 58 58 59 60 61 59 58 60 58 57 60 61 62 54 51 52 55 61 59 60 59 58 59 58 58 57 58 57 56 55 57 57 56 52 48 47 48 48 48 48 50 53 54 53 53 52 52 54 52 50 48 47
57 56 57 57 57 58 58 60 59 58 58 58 57 57 57 58 58 59 59 59 57 58 59 55 50 50 50 51 55 61 60 60 58 58 56 57 58 57 57 57 55 57 56 56 55 51 49 47 45 44 44 44 43 45 50 53 52 51 49 49 49 48 47
56 56 57 57 57 59 59 59 58 59 60 59 58 57 55 56 56 57 57 59 60 56 54 44 49 47 48 48 51 57 62 60 59 58 58 57 56 57 57 57 57 57 60 58 59 55 51 47 44 42 42 43 44 45 44 46 49 53 52 50 49 48 48
57 57 56 56 57 59 58 58 57 57 58 58 57 55 55 56 56 56 55 55 54 54 55 46 45 47 48 46 47 54 62 60 59 59 58 59 58 56 56 56 56 57 56 56 55 56 54 49 47 47 48 48 47 45 44 44 45 46 49 50 49 50 50
57 56 57 56 55 56 56 55 56 56 56 57 56 55 56 55 55 55 55 54 52 54 56 45 44 45 48 47 47 47 56 57 56 56 57 57 56 55 55 56 56 57 57 56 56 55 55 51 50 50 49 49 48 48 48 48 49 51 51 51 50 50 49
56 57 57 55 55 55 55 54 55 56 55 56 55 55 54 54 54 55 55 54 53 51 53 43 44 45 46 46 45 51 52 52 54 56 55 56 56 55 55 56 56 55 55 56 50 47 51 54 53 52 51 48 47 47 46 44 42 46 49 49 49 48 47
55 56 55 55 54 54 54 55 55 55 54 53 54 55 56 56 56 56 55 54 54 52 52 45 42 44 45 44 46 52 53 53 53 53 54 54 56 57 58 57 56 55 54 53 46 44 46 50 54 53 51 49 48 46 45 45 41 41 42 43 43 43 41
53 54 54 54 54 54 54 54 55 55 53 54 55 55 55 56 55 56 56 55 55 54 52 49 43 44 44 44 48 54 54 54 54 54 54 55 54 55 56 55 58 57 55 51 42 42 44 52 53 52 50 49 47 45 43 45 45 43 41 40 40 40 40
52 53 53 54 55 56 56 55 55 55 55 55 55 55 56 55 55 55 55 55 55 54 52 50 44 43 44 44 47 52 53 53 52 52 52 53 54 54 54 54 52 53 55 46 42 42 43 51 54 53 52 50 47 45 45 44 44 42 43 43 43 43 44
52 53 53 53 54 54 54 55 56 56 56 56 55 54 54 55 53 54 55 55 54 54 53 52 49 43 43 44 44 50 52 52 52 52 53 54 54 50 48 46 45 41 45 42 43 42 43 46 53 54 53 51 49 48 47 46 44 44 43 43 43 43 43
51 52 53 53 53 53 53 53 53 52 51 52 51 52 52 53 54 53 54 54 53 53 55 54 51 43 43 43 42 46 52 53 51 52 52 51 49 47 44 43 42 40 40 40 40 41 43 45 48 54 53 51 50 50 48 47 45 45 44 43 43 42 42
52 52 53 53 51 51 52 53 53 52 52 51 51 51 51 52 53 53 52 52 53 53 54 53 55 46 43 43 42 43 50 51 51 52 51 50 48 46 45 44 43 40 39 40 39 40 41 42 44 49 48 43 42 44 51 49 47 46 45 44 42 41 43
51 53 52 51 50 49 49 50 51 51 51 51 50 50 51 51 51 51 52 51 52 53 53 53 48 48 42 42 41 42 45 47 42 50 51 50 48 44 44 43 43 40 39 39 40 41 41 42 44 44 40 41 42 42 44 46 45 46 42 43 43 43 41
49 48 49 48 48 48 48 49 49 49 50 50 49 49 49 49 50 50 50 51 51 52 53 52 49 45 43 41 41 42 42 43 41 48 50 48 45 43 43 42 41 38 39 40 40 41 41 43 43 39 41 41 42 44 47 46 44 44 41 41 41 41 43
MSLP
1017.29 1017.57 1017.53 1017.57 1017.53 1017.57 1017.69 1017.85 1018.01 1018.09 1018.13 1018.25 1018.41 1018.45 1018.45 1018.53 1018.69 1018.85 1018.89 1019.01 1019.21 1019.41 1019.41 1019.49 1019.57 1019.57 1019.73 1019.89 1020.13 1020.29 1020.45 1020.73 1020.97 1021.21 1021.57 1021.69 1021.85 1022.21 1022.13 1022.13 1022.09 1021.93 1021.89 1022.05 1022.33 1022.89 1023.65 1024.37 1024.25 1023.45 1023.29 1023.29 1023.13 1023.09 1023.09 1023.25 1023.21 1023.41 1023.73 1023.77 1023.93 1024.09 1024.17
1017.17 1017.41 1017.45 1017.45 1017.53 1017.65 1017.93 1018.01 1018.13 1018.25 1018.21 1018.17 1018.21 1018.33 1018.33 1018.41 1018.57 1018.81 1018.93 1019.05 1019.13 1019.29 1019.41 1019.57 1019.53 1019.61 1019.77 1020.17 1020.45 1020.41 1020.49 1020.49 1020.65 1020.97 1021.33 1021.65 1021.69 1021.97 1022.21 1022.29 1022.25 1022.29 1022.17 1022.21 1022.37 1022.49 1023.25 1024.17 1024.53 1024.21 1024.05 1023.53 1023.29 1023.21 1023.13 1023.21 1023.37 1023.57 1023.73 1023.93 1024.05 1024.17 1024.33
1017.25 1017.49 1017.45 1017.65 1017.77 1017.81 1018.09 1018.21 1018.21 1018.29 1018.37 1018.45 1018.41 1018.37 1018.41 1018.41 1018.45 1018.53 1018.77 1018.89 1018.93 1019.05 1019.29 1019.49 1019.57 1019.73 1019.85 1020.01 1020.13 1020.25 1020.37 1020.53 1020.57 1020.81 1021.17 1021.41 1021.45 1021.65 1021.73 1021.97 1022.37 1022.49 1022.49 1022.61 1022.69 1022.81 1023.05 1023.13 1024.05 1024.25 1023.97 1024.05 1024.29 1023.81 1023.45 1023.49 1023.57 1023.73 1023.85 1023.97 1024.13 1024.25 1024.45
1017.33 1017.53 1017.81 1017.93 1017.97 1018.01 1018.13 1018.25 1018.33 1018.41 1018.41 1018.53 1018.53 1018.57 1018.45 1018.49 1018.53 1018.65 1018.85 1018.93 1018.97 1019.05 1019.25 1019.37 1019.57 1019.73 1019.93 1019.97 1020.09 1020.17 1020.29 1020.41 1020.53 1020.65 1020.93 1021.09 1021.25 1021.53 1021.65 1021.73 1022.01 1022.09 1022.21 1022.61 1022.73 1022.73 1022.89 1023.49 1023.89 1024.09 1023.97 1023.93 1024.09 1024.25 1023.81 1023.77 1023.73 1023.77 1023.85 1024.01 1024.29 1024.57 1024.65
1017.25 1017.61 1017.89 1018.13 1018.13 1018.21 1018.17 1018.37 1018.41 1018.45 1018.57 1018.53 1018.61 1018.69 1018.69 1018.57 1018.65 1018.89 1018.89 1019.01 1019.17 1019.21 1019.37 1019.37 1019.53 1019.77 1020.01 1020.13 1020.17 1020.33 1020.45 1020.41 1020.49 1020.65 1020.85 1021.05 1021.21 1021.37 1021.45 1021.49 1021.69 1021.73 1021.77 1021.93 1022.13 1022.33 1022.65 1023.17 1023.29 1023.81 1023.97 1023.85 1023.97 1023.93 1023.69 1023.93 1023.85 1023.97 1024.17 1024.37 1024.49 1024.61 1024.73
1017.21 1017.53 1017.85 1018.05 1018.09 1018.13 1018.25 1018.37 1018.53 1018.69 1018.73 1018.85 1018.89 1018.93 1018.85 1018.81 1018.93 1019.05 1019.13 1019.25 1019.41 1019.41 1019.41 1019.45 1019.61 1019.73 1019.97 1020.17 1020.37 1020.45 1020.41 1020.53 1020.57 1020.65 1020.89 1021.01 1021.17 1021.33 1021.45 1021.45 1021.57 1021.73 1021.69 1021.61 1021.81 1022.13 1022.37 1022.81 1023.17 1023.69 1023.61 1023.45 1023.85 1024.01 1023.97 1023.85 1024.29 1024.25 1024.21 1024.41 1024.53 1024.61 1024.69
1017.25 1017.53 1017.77 1017.97 1018.05 1018.05 1018.13 1018.21 1018.41 1018.61 1018.81 1018.89 1018.93 1019.05 1019.05 1019.01 1019.05 1019.05 1019.09 1019.25 1019.29 1019.37 1019.49 1019.61 1019.69 1019.85 1020.05 1020.21 1020.33 1020.41 1020.49 1020.53 1020.57 1020.69 1020.81 1020.85 1020.89 1021.01 1021.21 1021.49 1021.49 1021.57 1021.65 1021.49 1021.53 1021.77 1022.37 1022.93 1023.29 1023.21 1023.49 1023.61 1023.65 1023.89 1023.81 1023.93 1024.01 1024.41 1024.81 1024.57 1024.49 1024.53 1024.65
1017.29 1017.53 1017.73 1017.81 1017.93 1018.01 1018.05 1018.17 1018.45 1018.57 1018.77 1018.97 1019.01 1019.05 1019.09 1019.13 1019.21 1019.21 1019.29 1019.37 1019.41 1019.49 1019.65 1019.85 1019.97 1020.09 1020.17 1020.29 1020.41 1020.53 1020.65 1020.65 1020.69 1020.65 1020.77 1020.81 1020.93 1021.13 1021.29 1021.45 1021.61 1021.65 1021.57 1021.61 1021.53 1021.53 1021.85 1022.29 1022.61 1022.89 1023.21 1024.01 1024.21 1024.13 1024.13 1024.01 1024.05 1024.21 1024.65 1024.77 1024.53 1024.61 1024.65
1017.29 1017.49 1017.69 1017.77 1017.85 1017.85 1018.05 1018.29 1018.57 1018.65 1018.81 1018.89 1018.97 1019.05 1019.13 1019.17 1019.29 1019.41 1019.45 1019.61 1019.65 1019.77 1019.89 1020.01 1020.21 1020.33 1020.41 1020.53 1020.69 1020.69 1020.77 1020.61 1020.65 1020.73 1020.85 1020.89 1021.01 1021.13 1021.29 1021.29 1021.33 1021.57 1021.45 1021.29 1021.21 1021.37 1021.53 1021.81 1022.09 1022.49 1022.77 1023.21 1023.97 1024.69 1024.45 1024.57 1024.57 1024.77 1024.33 1024.61 1024.69 1024.49 1024.61
1017.33 1017.49 1017.69 1017.81 1017.89 1017.97 1018.17 1018.33 1018.57 1018.69 1018.73 1018.81 1018.97 1019.05 1019.21 1019.29 1019.45 1019.61 1019.73 1019.81 1019.89 1019.97 1020.09 1020.21 1020.33 1020.41 1020.53 1020.69 1020.81 1020.81 1020.85 1020.69 1020.65 1020.81 1020.97 1021.13 1021.29 1021.25 1021.25 1021.33 1021.49 1021.57 1021.53 1021.33 1021.45 1021.65 1021.81 1022.05 1022.25 1022.37 1022.49 1022.65 1023.17 1024.05 1024.53 1024.85 1024.89 1024.81 1024.65 1024.33 1024.73 1024.69 1024.61
1017.37 1017.53 1017.65 1017.89 1018.01 1018.17 1018.37 1018.45 1018.57 1018.73 1018.85 1018.93 1019.09 1019.25 1019.41 1019.57 1019.65 1019.73 1019.89 1020.01 1020.05 1020.13 1020.25 1020.37 1020.49 1020.57 1020.69 1020.85 1020.89 1020.89 1020.93 1020.85 1020.93 1020.97 1021.05 1021.13 1021.29 1021.29 1021.41 1021.49 1021.49 1021.61 1021.57 1021.49 1021.69 1021.73 1021.77 1021.81 1021.85 1022.09 1022.29 1022.49 1022.61 1023.17 1023.73 1024.57 1024.93 1024.65 1024.53 1024.17 1024.09 1024.53 1024.57
1017.49 1017.61 1017.77 1017.97 1018.13 1018.37 1018.57 1018.65 1018.73 1018.85 1018.93 1019.01 1019.21 1019.41 1019.57 1019.69 1019.81 1019.93 1020.01 1020.17 1020.25 1020.33 1020.45 1020.57 1020.65 1020.77 1020.85 1021.01 1021.05 1021.13 1021.09 1021.09 1021.17 1021.29 1021.33 1021.33 1021.45 1021.37 1021.45 1021.57 1021.57 1021.65 1021.65 1021.65 1021.69 1021.69 1021.81 1021.85 1021.93 1022.05 1022.41 1022.61 1022.69 1022.69 1023.29 1023.81 1024.65 1024.61 1024.33 1024.37 1024.17 1023.97 1024.21
1017.57 1017.73 1017.89 1018.05 1018.33 1018.53 1018.69 1018.73 1018.85 1018.93 1019.09 1019.17 1019.29 1019.45 1019.65 1019.85 1019.97 1020.09 1020.17 1020.25 1020.33 1020.45 1020.61 1020.77 1020.77 1020.89 1020.97 1021.09 1021.17 1021.25 1021.29 1021.29 1021.41 1021.45 1021.49 1021.49 1021.53 1021.65 1021.73 1021.81 1021.85 1021.77 1021.73 1021.77 1021.77 1021.81 1021.97 1022.05 1022.05 1022.21 1022.41 1022.57 1022.77 1022.97 1023.09 1023.61 1024.25 1024.57 1024.13 1024.01 1024.01 1024.01 1023.93
1017.85 1017.93 1018.09 1018.21 1018.49 1018.69 1018.77 1018.85 1018.85 1018.93 1019.09 1019.29 1019.41 1019.65 1019.81 1019.93 1020.09 1020.21 1020.29 1020.37 1020.45 1020.61 1020.73 1020.85 1020.93 1021.01 1021.13 1021.25 1021.29 1021.33 1021.37 1021.45 1021.53 1021.57 1021.57 1021.73 1021.73 1021.77 1021.97 1022.09 1022.05 1022.01 1021.93 1021.97 1022.01 1021.97 1021.93 1022.05 1022.13 1022.33 1022.45 1022.61 1022.97 1023.01 1023.13 1023.69 1024.21 1024.53 1024.25 1024.05 1023.93 1023.93 1024.01
1017.93 1018.05 1018.21 1018.41 1018.61 1018.77 1018.89 1018.97 1018.97 1019.05 1019.25 1019.33 1019.49 1019.73 1019.85 1020.05 1020.13 1020.29 1020.45 1020.57 1020.61 1020.65 1020.73 1020.89 1021.05 1021.13 1021.21 1021.33 1021.45 1021.49 1021.57 1021.61 1021.69 1021.81 1021.77 1021.85 1021.85 1021.89 1021.97 1022.01 1022.09 1022.05 1021.97 1022.05 1022.09 1022.17 1022.17 1022.13 1022.29 1022.61 1022.69 1022.77 1022.97 1023.13 1023.09 1023.65 1024.25 1024.37 1024.53 1024.17 1024.13 1024.05 1023.89
1017.97 1018.13 1018.37 1018.61 1018.77 1018.93 1019.01 1019.01 1019.05 1019.21 1019.33 1019.41 1019.53 1019.69 1019.85 1020.01 1020.13 1020.33 1020.53 1020.57 1020.65 1020.73 1020.81 1020.93 1021.01 1021.05 1021.21 1021.29 1021.45 1021.53 1021.53 1021.57 1021.69 1021.77 1021.81 1021.89 1021.93 1021.89 1021.93 1022.01 1022.09 1022.05 1022.01 1022.13 1022.29 1022.33 1022.29 1022.41 1022.33 1022.49 1022.77 1022.73 1022.85 1023.01 1023.01 1023.21 1023.73 1024.25 1024.25 1024.25 1024.17 1024.05 1024.01
1018.01 1018.29 1018.53 1018.73 1018.89 1019.01 1019.05 1019.09 1019.09 1019.25 1019.33 1019.41 1019.53 1019.73 1019.77 1019.89 1020.21 1020.37 1020.49 1020.61 1020.69 1020.73 1020.89 1020.89 1020.89 1020.89 1021.05 1021.13 1021.25 1021.37 1021.33 1021.37 1021.49 1021.53 1021.61 1021.73 1021.77 1021.85 1021.93 1022.01 1022.05 1022.05 1022.05 1022.17 1022.29 1022.33 1022.37 1022.41 1022.61 1022.65 1022.57 1022.45 1022.53 1022.89 1022.97 1022.97 1023.05 1023.53 1024.09 1024.17 1024.17 1023.97 1023.77
1018.09 1018.33 1018.61 1018.77 1018.93 1019.01 1019.09 1019.13 1019.17 1019.25 1019.37 1019.49 1019.53 1019.65 1019.81 1019.81 1020.09 1020.33 1020.45 1020.57 1020.69 1020.77 1020.81 1020.85 1020.93 1020.93 1020.97 1021.05 1021.09 1021.17 1021.17 1021.25 1021.33 1021.45 1021.49 1021.57 1021.65 1021.77 1021.89 1021.97 1022.01 1022.01 1022.09 1022.21 1022.25 1022.37 1022.37 1022.49 1022.53 1022.61 1022.73 1022.65 1022.57 1022.69 1022.89 1023.01 1023.21 1023.41 1023.85 1024.05 1024.05 1023.89 1023.81
1018.09 1018.25 1018.45 1018.65 1018.81 1018.89 1018.97 1019.09 1019.17 1019.21 1019.29 1019.45 1019.57 1019.65 1019.69 1019.73 1019.89 1020.09 1020.21 1020.37 1020.45 1020.57 1020.65 1020.81 1020.89 1020.93 1020.93 1021.01 1021.05 1021.09 1021.13 1021.17 1021.29 1021.41 1021.53 1021.57 1021.61 1021.69 1021.85 1021.93 1021.97 1021.97 1022.09 1022.25 1022.33 1022.41 1022.45 1022.53 1022.61 1022.73 1022.77 1022.77 1022.73 1022.65 1022.85 1023.05 1023.13 1023.33 1023.45 1023.65 1023.77 1023.89 1023.97
1018.01 1018.17 1018.37 1018.57 1018.65 1018.81 1018.93 1019.01 1019.13 1019.17 1019.21 1019.29 1019.49 1019.57 1019.53 1019.69 1019.77 1019.85 1020.01 1020.21 1020.37 1020.45 1020.53 1020.69 1020.81 1020.93 1020.93 1020.97 1021.01 1021.13 1021.17 1021.25 1021.33 1021.37 1021.49 1021.57 1021.53 1021.57 1021.65 1021.77 1021.85 1021.89 1022.01 1022.13 1022.25 1022.29 1022.37 1022.45 1022.57 1022.81 1022.81 1022.77 1022.69 1022.77 1022.93 1023.17 1023.25 1023.41 1023.49 1023.65 1023.69 1023.69 1023.77
1017.97 1018.09 1018.25 1018.41 1018.57 1018.73 1018.81 1018.93 1018.97 1019.01 1019.13 1019.29 1019.33 1019.29 1019.45 1019.61 1019.65 1019.81 1019.85 1020.09 1020.25 1020.33 1020.45 1020.57 1020.69 1020.77 1020.85 1020.93 1021.01 1021.13 1021.13 1021.17 1021.33 1021.33 1021.41 1021.53 1021.49 1021.53 1021.69 1021.85 1021.89 1021.89 1021.89 1022.01 1022.09 1022.17 1022.25 1022.45 1022.49 1022.73 1022.85 1022.81 1022.85 1022.93 1023.05 1023.17 1023.25 1023.29 1023.37 1023.53 1023.65 1023.73 1023.57
1017.97 1018.13 1018.25 1018.41 1018.57 1018.73 1018.81 1018.85 1018.85 1018.85 1018.97 1019.13 1019.13 1019.05 1019.09 1019.29 1019.53 1019.73 1019.85 1019.93 1020.17 1020.25 1020.37 1020.49 1020.61 1020.65 1020.73 1020.81 1020.85 1021.05 1021.09 1021.13 1021.25 1021.41 1021.53 1021.49 1021.53 1021.57 1021.69 1021.73 1021.73 1021.81 1021.85 1021.89 1021.97 1022.01 1022.05 1022.13 1022.33 1022.65 1022.73 1022.73 1022.89 1023.01 1023.17 1023.17 1023.21 1023.33 1023.61 1023.73 1023.81 1023.89 1023.93
1018.29 1018.41 1018.49 1018.61 1018.69 1018.81 1018.89 1018.89 1018.93 1019.01 1019.05 1019.09 1019.09 1019.01 1018.97 1019.09 1019.33 1019.49 1019.69 1019.89 1020.05 1020.17 1020.21 1020.29 1020.33 1020.37 1020.41 1020.61 1020.77 1020.85 1020.97 1020.97 1021.09 1021.25 1021.33 1021.45 1021.53 1021.53 1021.57 1021.61 1021.57 1021.57 1021.73 1021.81 1021.89 1022.01 1022.09 1022.17 1022.17 1022.21 1022.41 1022.53 1022.73 1022.97 1023.09 1023.17 1023.21 1023.29 1023.45 1023.65 1023.81 1023.89 1023.97
1018.65 1018.73 1018.77 1018.85 1018.89 1019.01 1019.05 1019.05 1019.05 1019.05 1019.05 1019.17 1019.21 1019.21 1019.29 1019.29 1019.41 1019.49 1019.57 1019.69 1019.85 1019.97 1020.01 1020.01 1020.01 1020.09 1020.17 1020.33 1020.53 1020.69 1020.77 1020.85 1020.89 1021.01 1021.05 1021.17 1021.37 1021.45 1021.49 1021.57 1021.65 1021.65 1021.69 1021.81 1021.89 1021.93 1022.01 1022.09 1022.21 1022.33 1022.45 1022.53 1022.69 1022.77 1022.93 1023.09 1023.17 1023.21 1023.33 1023.53 1023.89 1023.93 1024.13
1018.89 1019.01 1019.01 1019.09 1019.13 1019.05 1019.01 1019.05 1019.05 1019.05 1019.05 1019.13 1019.21 1019.25 1019.33 1019.41 1019.45 1019.53 1019.57 1019.65 1019.77 1019.81 1019.97 1019.97 1019.85 1019.77 1019.97 1020.13 1020.25 1020.41 1020.53 1020.69 1020.85 1020.93 1021.09 1021.13 1021.25 1021.37 1021.41 1021.53 1021.65 1021.73 1021.73 1021.69 1021.81 1021.97 1022.09 1022.21 1022.33 1022.45 1022.53 1022.61 1022.77 1022.89 1022.77 1022.85 1023.01 1023.21 1023.29 1023.49 1023.69 1023.85 1024.01
1018.97 1019.01 1019.05 1019.17 1019.21 1019.21 1019.13 1019.17 1019.21 1019.21 1019.21 1019.17 1019.13 1019.33 1019.53 1019.61 1019.65 1019.69 1019.65 1019.65 1019.69 1019.85 1019.81 1019.85 1020.13 1020.41 1020.21 1019.85 1019.81 1019.85 1020.13 1020.41 1020.69 1020.89 1021.01 1021.13 1021.21 1021.29 1021.37 1021.45 1021.61 1021.65 1021.53 1021.57 1021.65 1021.85 1022.05 1022.37 1022.65 1022.73 1022.77 1022.89 1022.97 1022.93 1022.89 1022.89 1022.93 1022.93 1023.17 1023.33 1023.57 1023.97 1024.05
1019.25 1019.21 1019.17 1019.13 1018.97 1018.93 1019.01 1019.09 1019.13 1019.21 1019.29 1019.33 1019.41 1019.45 1019.49 1019.61 1019.69 1019.85 1020.01 1019.97 1020.01 1020.01 1019.85 1020.01 1019.89 1019.81 1019.97 1020.09 1019.93 1019.89 1020.05 1020.21 1020.41 1020.61 1020.77 1020.85 1020.93 1021.05 1021.09 1021.17 1021.29 1021.33 1021.33 1021.41 1021.49 1021.73 1022.01 1022.29 1022.61 1022.81 1022.93 1023.01 1023.09 1023.21 1023.21 1023.09 1023.05 1023.09 1023.09 1023.21 1023.41 1023.65 1024.01
1019.53 1019.53 1019.49 1019.45 1019.41 1019.41 1019.49 1019.45 1019.41 1019.33 1019.25 1019.29 1019.41 1019.49 1019.53 1019.61 1019.65 1019.77 1019.93 1020.13 1020.21 1020.13 1020.01 1020.21 1020.01 1019.85 1019.77 1019.93 1020.29 1020.25 1020.21 1020.41 1020.61 1020.77 1020.85 1020.93 1021.01 1021.17 1021.29 1021.17 1021.13 1021.05 1021.13 1021.25 1021.37 1021.49 1021.73 1022.13 1022.33 1022.61 1022.89 1023.05 1023.17 1023.33 1023.25 1023.21 1023.13 1023.05 1023.13 1023.21 1023.37 1023.81 1024.21
1019.49 1019.17 1019.21 1019.33 1019.41 1019.49 1019.53 1019.61 1019.65 1019.53 1019.53 1019.45 1019.37 1019.37 1019.49 1019.57 1019.61 1019.69 1019.73 1020.01 1020.21 1020.25 1020.13 1020.01 1019.93 1020.01 1019.89 1020.01 1020.21 1020.33 1020.33 1020.33 1020.33 1020.37 1020.53 1021.17 1021.77 1022.05 1022.09 1021.93 1021.45 1021.13 1021.01 1021.13 1021.29 1021.33 1021.45 1021.89 1022.09 1022.37 1022.81 1023.21 1023.49 1023.53 1023.61 1023.89 1023.81 1023.53 1023.53 1023.57 1023.73 1023.97 1024.13
1019.97 1019.77 1019.57 1019.49 1019.45 1019.49 1019.57 1019.53 1019.53 1019.65 1019.65 1019.69 1019.69 1019.57 1019.37 1019.37 1019.45 1019.57 1019.65 1019.73 1019.89 1019.97 1019.97 1019.93 1019.85 1019.77 1019.81 1019.93 1020.17 1020.33 1020.41 1020.49 1020.57 1020.61 1020.61 1020.77 1020.89 1021.09 1021.13 1021.09 1021.05 1021.01 1021.05 1021.17 1021.53 1021.65 1021.65 1021.81 1022.05 1022.25 1022.61 1022.97 1023.41 1023.37 1023.61 1023.93 1024.05 1023.93 1023.85 1023.81 1023.97 1024.13 1024.33
1020.73 1020.65 1020.49 1020.37 1020.21 1020.01 1019.85 1019.77 1019.77 1019.73 1019.73 1019.69 1019.57 1019.49 1019.41 1019.37 1019.29 1019.29 1019.37 1019.41 1019.53 1019.69 1019.73 1019.69 1019.65 1019.57 1019.61 1019.73 1019.85 1020.01 1020.29 1020.45 1020.49 1020.53 1020.69 1020.61 1020.45 1020.53 1020.61 1020.65 1020.61 1020.73 1020.89 1021.37 1021.77 1022.13 1022.17 1021.81 1021.85 1022.13 1022.37 1022.65 1022.93 1023.09 1023.65 1024.01 1024.05 1024.21 1024.25 1024.21 1024.29 1024.33 1024.41
1021.41 1021.29 1021.17 1021.05 1020.89 1020.69 1020.41 1020.25 1020.01 1019.85 1019.73 1019.69 1019.61 1019.49 1019.37 1019.29 1019.21 1019.13 1019.17 1019.21 1019.29 1019.37 1019.49 1019.45 1019.53 1019.49 1019.45 1019.45 1019.81 1020.13 1020.33 1020.49 1020.61 1020.61 1020.65 1020.65 1020.65 1020.61 1020.61 1020.69 1020.81 1020.89 1020.81 1021.41 1021.29 1021.85 1021.89 1021.53 1021.57 1021.77 1021.93 1022.13 1022.45 1022.81 1023.33 1023.85 1023.73 1023.77 1023.93 1023.97 1024.13 1024.17 1024.21
1021.73 1021.65 1021.53 1021.33 1021.17 1021.01 1020.81 1020.57 1020.37 1020.17 1020.01 1019.89 1019.77 1019.57 1019.41 1019.37 1019.37 1019.21 1018.93 1018.89 1018.97 1019.05 1019.17 1019.25 1019.29 1019.37 1019.33 1019.41 1019.89 1020.17 1020.13 1020.05 1020.17 1020.33 1020.33 1020.29 1020.41 1020.73 1020.97 1021.09 1021.13 1021.25 1021.29 1021.13 1020.85 1021.29 1021.41 1021.57 1021.25 1021.45 1021.61 1021.85 1022.37 1022.53 1023.33 1023.57 1023.45 1023.41 1023.57 1023.65 1023.85 1023.97 1024.01
1021.81 1021.73 1021.57 1021.49 1021.45 1021.37 1021.29 1021.17 1020.93 1020.69 1020.45 1020.21 1020.01 1019.77 1019.57 1019.41 1019.29 1019.21 1019.13 1018.93 1018.81 1018.81 1018.77 1018.89 1018.93 1018.97 1019.01 1019.25 1019.89 1019.93 1019.77 1019.77 1019.81 1019.85 1019.89 1020.05 1020.25 1020.61 1020.97 1021.25 1021.49 1021.69 1021.97 1022.01 1021.53 1021.61 1021.41 1021.33 1021.05 1021.25 1021.33 1021.65 1021.97 1022.29 1023.01 1023.17 1023.33 1023.37 1023.53 1023.69 1023.81 1024.05 1024.25
1021.69 1021.61 1021.53 1021.45 1021.45 1021.45 1021.41 1021.29 1021.17 1021.01 1020.77 1020.49 1020.21 1019.93 1019.69 1019.53 1019.33 1019.09 1018.97 1018.97 1018.81 1018.61 1018.45 1018.41 1018.49 1018.65 1018.65 1018.97 1019.49 1019.65 1019.57 1019.41 1019.37 1019.49 1019.69 1019.77 1020.13 1020.49 1020.77 1021.21 1021.45 1021.41 1021.41 1021.73 1022.01 1021.97 1021.61 1021.49 1021.41 1021.49 1021.73 1021.77 1022.05 1022.33 1022.61 1022.81 1023.05 1023.29 1023.37 1023.57 1023.73 1023.73 1023.73
1021.53 1021.49 1021.45 1021.41 1021.37 1021.41 1021.41 1021.37 1021.33 1021.29 1021.13 1020.85 1020.61 1020.33 1020.01 1019.73 1019.49 1019.25 1018.97 1018.81 1018.77 1018.53 1018.33 1018.17 1018.17 1018.37 1018.61 1018.89 1019.09 1019.25 1019.09 1019.17 1019.29 1019.25 1019.33 1019.57 1019.97 1020.57 1021.05 1021.29 1021.53 1021.53 1021.25 1021.45 1021.69 1021.89 1021.97 1021.89 1021.81 1022.01 1022.13 1022.01 1022.09 1022.29 1022.49 1022.73 1022.89 1023.09 1023.41 1023.65 1023.69 1023.65 1023.81
1021.77 1021.69 1021.57 1021.49 1021.53 1021.53 1021.49 1021.49 1021.41 1021.33 1021.21 1021.05 1020.85 1020.57 1020.25 1019.93 1019.61 1019.25 1018.97 1018.65 1018.49 1018.45 1018.33 1018.13 1017.81 1018.09 1018.33 1018.53 1018.61 1018.77 1019.01 1018.97 1018.97 1019.05 1019.13 1019.45 1020.13 1020.57 1020.89 1021.13 1021.49 1021.89 1021.37 1021.33 1021.41 1021.69 1022.17 1022.01 1022.09 1022.21 1022.05 1022.09 1022.17 1022.29 1022.49 1022.73 1022.97 1023.21 1023.41 1023.45 1023.37 1023.57 1024.17
Wind_Speed
8 7 6 6 5 6 6 4 4 3 3 4 4 3 4 4 3 3 3 3 4 3 3 6 5 3 5 5 6 3 3 5 6 7 4 4 6 2 2 2 0 3 3 3 3 5 5 5 2 4 4 4 4 3 4 5 4 4 5 6 7 7 6
7 6 6 5 6 6 6 5 7 5 4 3 3 3 5 6 6 5 4 3 4 4 3 2 2 2 3 6 6 6 5 4 5 5 6 5 4 4 4 1 1 2 3 3 2 3 3 4 2 3 2 3 4 2 3 4 5 5 6 7 6 6 6
7 6 6 5 5 5 6 5 5 6 6 5 5 5 5 4 5 5 5 4 3 3 3 3 4 6 5 5 4 5 5 5 3 5 7 6 5 5 5 5 4 2 3 3 1 2 3 3 6 4 4 6 4 1 1 7 8 7 6 6 6 7 7
7 7 6 4 4 4 5 5 5 6 5 6 5 4 4 4 4 4 4 4 4 4 4 4 6 6 5 4 3 3 3 4 5 5 5 5 6 6 5 6 6 7 7 5 6 3 4 3 4 3 2 3 4 3 2 1 5 6 7 7 7 6 6
8 7 7 5 4 4 4 4 5 6 4 5 5 4 3 3 5 5 5 5 5 5 6 5 5 6 6 4 3 1 2 3 4 4 4 5 5 5 5 5 6 5 4 4 6 6 7 7 8 7 6 3 1 2 1 3 5 7 6 6 6 6 6
8 7 6 6 5 5 4 5 5 6 6 6 4 5 2 3 5 5 6 6 5 4 5 5 4 6 6 4 4 3 4 4 4 4 5 5 5 5 6 3 3 3 4 4 5 6 6 7 7 7 5 4 5 4 3 4 3 3 5 7 7 6 6
7 6 6 6 5 5 5 5 5 6 6 6 5 3 3 5 4 5 5 5 4 4 4 4 5 5 5 6 5 5 4 3 3 4 4 4 4 4 5 5 3 3 1 2 4 6 7 7 6 8 6 1 3 4 2 3 5 6 3 3 6 6 5
7 6 5 5 5 5 4 4 4 6 6 5 7 5 4 5 5 5 4 4 3 3 4 4 4 4 4 4 4 4 3 3 4 5 5 5 5 5 5 6 6 4 3 3 5 6 8 9 8 7 7 6 2 1 2 1 2 4 6 2 4 5 5
5 5 5 5 4 5 4 6 6 6 6 6 5 6 5 5 5 4 4 4 4 5 5 6 4 5 5 5 4 5 4 3 6 5 4 6 7 6 5 5 8 4 3 4 5 6 6 7 6 5 7 9 8 3 2 3 2 2 2 3 1 3 6
6 6 6 5 5 5 6 7 7 6 6 6 6 4 4 4 4 5 5 5 4 4 5 5 5 6 5 5 5 5 4 4 5 6 4 6 4 5 6 6 6 5 3 4 7 6 7 7 7 6 6 9 8 8 4 3 1 3 1 1 3 1 4
6 6 6 6 6 7 6 7 6 7 6 5 5 4 5 5 4 5 4 3 3 4 5 4 5 6 6 5 5 5 4 4 4 4 5 7 6 6 5 6 5 5 4 5 5 5 6 7 8 7 5 3 8 9 6 6 2 0 1 1 2 2 2
6 6 6 6 6 7 6 6 6 6 5 5 7 5 5 5 5 4 4 4 4 4 4 5 5 6 5 5 4 5 4 5 5 4 3 4 4 6 6 5 4 4 4 5 5 7 6 7 7 7 6 4 5 7 8 7 5 1 2 2 1 2 4
5 6 6 7 7 6 6 6 6 5 5 5 5 5 4 5 4 4 4 3 4 4 5 5 5 5 5 4 4 6 4 4 4 4 4 4 5 5 5 4 3 4 4 4 5 6 6 5 6 7 6 6 7 7 7 5 6 3 0 2 3 4 5
6 6 6 6 6 6 5 5 5 5 5 5 4 4 5 4 4 5 4 4 3 4 5 5 4 4 4 4 5 5 4 5 5 4 4 5 4 5 4 4 4 2 3 5 4 3 4 4 4 5 6 7 6 6 8 6 7 4 1 1 3 2 2
6 5 6 5 6 6 5 4 4 4 5 4 4 4 5 4 4 5 4 4 4 4 4 5 4 4 4 5 5 4 4 4 4 3 4 5 4 4 4 5 5 4 4 5 5 5 4 4 5 5 3 7 6 5 4 5 3 4 3 0 2 0 1
6 6 6 5 5 5 4 4 4 4 4 4 3 4 5 5 5 5 5 5 4 4 4 4 4 5 5 5 5 4 5 5 5 5 6 5 5 4 5 4 5 4 4 5 4 4 4 4 4 7 4 4 6 5 6 7 5 3 5 4 3 2 2
7 5 5 5 5 4 4 4 4 4 4 4 4 1 4 5 4 5 5 5 5 4 4 5 4 4 4 5 7 6 5 5 5 5 5 5 6 5 5 4 4 4 4 4 3 4 2 4 6 2 2 3 6 6 4 6 5 4 3 5 3 5 4
7 6 6 5 6 5 5 4 3 3 2 3 3 2 4 4 5 6 6 6 5 5 5 5 5 3 3 4 5 5 5 5 5 5 5 5 6 6 5 5 4 3 4 3 2 4 4 6 6 6 4 2 4 5 5 5 5 4 4 4 3 3 2
7 7 7 7 7 6 6 4 4 3 3 4 2 4 6 3 5 6 6 6 6 5 5 5 5 4 4 4 4 5 4 4 3 4 5 5 5 5 5 4 4 4 3 4 2 3 4 5 5 5 4 3 2 4 4 4 4 4 5 6 5 3 1
5 5 5 5 6 6 6 5 5 5 4 4 4 5 5 4 3 5 5 5 6 6 5 4 5 4 4 4 4 4 4 4 3 4 5 5 5 5 5 6 5 4 4 3 4 3 4 4 5 5 4 3 3 4 3 3 3 4 3 3 2 3 5
5 5 4 4 4 5 6 6 5 5 4 4 5 5 5 5 4 4 5 5 5 6 5 4 4 4 4 3 4 4 4 3 2 2 2 2 4 4 4 4 4 3 3 2 4 4 3 3 3 4 3 3 3 3 2 2 4 2 1 1 1 2 2
4 4 4 4 4 4 3 2 3 3 2 3 5 6 5 5 5 5 4 5 5 5 6 5 4 5 4 4 4 4 4 4 3 3 3 4 4 5 5 5 5 4 4 6 8 5 4 4 4 3 1 4 3 2 1 2 2 2 3 2 1 2 2
5 3 4 3 3 3 1 2 3 1 1 0 3 5 6 5 5 6 5 4 4 5 6 5 7 12 10 7 5 5 5 6 5 5 5 5 4 4 5 4 5 10 10 9 9 9 8 7 5 4 5 4 4 3 3 2 1 1 1 1 1 1 2
3 3 2 3 2 2 1 1 2 2 2 3 3 3 1 1 3 4 4 4 5 5 5 6 12 14 15 14 8 6 6 6 5 6 6 6 6 6 4 4 4 6 7 7 7 9 8 8 8 8 7 7 4 3 4 3 3 3 2 1 2 3 3
3 3 3 3 1 1 2 2 1 2 3 3 3 3 3 4 3 0 3 2 3 4 2 3 11 16 15 14 11 7 6 6 5 5 4 5 5 5 5 5 4 4 4 6 5 5 5 5 7 8 8 8 8 7 4 3 2 2 3 4 3 3 4
3 1 0 0 1 1 1 0 1 1 1 1 2 2 2 3 3 4 3 2 1 3 3 6 8 5 5 14 16 12 7 6 7 6 5 5 4 5 6 6 5 5 5 9 6 5 5 4 5 7 8 8 6 7 7 6 4 4 5 5 6 3 3
3 1 2 2 1 1 2 3 2 1 0 0 1 3 3 2 2 2 3 4 4 2 1 2 8 9 4 8 10 9 6 8 8 7 7 7 5 5 7 7 7 6 4 5 4 5 5 5 5 4 4 3 3 4 6 7 6 5 4 6 7 4 1
5 5 5 4 5 6 5 4 2 2 3 4 4 4 4 4 4 3 1 1 2 1 0 5 5 6 8 9 6 1 2 2 1 0 2 1 2 1 1 3 5 6 5 5 5 6 7 7 6 5 4 4 4 3 3 3 3 3 4 4 6 7 5
10 9 7 5 5 5 5 4 5 5 3 4 3 2 2 2 4 4 4 1 2 2 3 7 8 7 8 7 7 3 2 4 5 5 3 2 6 5 6 8 6 6 5 5 6 11 10 8 7 7 6 5 4 3 3 2 4 3 5 6 7 7 6
10 10 9 8 9 8 7 7 6 5 5 3 3 5 5 5 5 5 5 4 5 4 4 8 10 11 11 11 6 5 4 5 4 4 4 4 6 9 9 10 7 5 4 3 3 5 11 11 6 7 8 7 5 4 4 2 5 7 9 11 10 10 9
8 8 9 10 9 8 7 6 6 5 5 6 7 6 5 5 5 5 6 6 6 5 6 9 13 13 14 14 12 8 7 7 7 6 5 5 3 4 5 7 8 6 5 4 6 3 10 9 7 7 8 8 6 5 3 2 2 4 6 8 8 8 8
6 6 6 7 7 9 9 8 7 7 7 7 7 7 7 7 7 5 4 5 6 6 6 8 12 13 13 14 11 5 5 3 4 6 7 7 5 5 5 6 7 6 5 9 13 12 14 10 7 9 9 8 7 6 6 5 5 4 3 4 2 3 1
5 5 6 6 6 6 7 8 8 9 8 7 7 7 7 7 5 6 7 5 5 6 6 7 9 14 15 14 12 7 6 8 8 8 8 8 7 1 0 2 4 8 6 14 16 16 13 10 9 8 9 8 8 7 6 5 4 5 4 4 3 2 3
4 4 4 5 5 6 6 7 7 7 7 7 7 7 7 7 7 6 6 7 5 6 7 8 10 16 16 14 12 12 8 7 6 7 8 7 4 5 3 2 2 8 6 1 6 5 7 8 9 8 8 8 7 8 9 5 4 7 4 4 4 2 0
4 5 4 4 5 5 5 6 6 7 7 7 8 8 7 8 9 10 8 5 6 7 9 12 8 14 17 15 14 15 8 9 9 8 6 5 5 6 7 6 4 7 11 9 6 7 9 10 11 7 6 10 14 16 9 6 6 5 4 3 3 3 2
6 5 5 5 5 5 5 6 6 7 7 8 8 7 7 7 7 8 8 8 6 8 8 10 13 9 12 15 16 17 16 10 10 8 8 8 7 7 6 6 4 6 12 11 10 10 9 11 10 8 11 13 13 13 8 6 6 6 5 4 4 4 4
7 6 6 7 6 6 6 6 7 6 7 7 7 8 7 7 7 8 8 9 8 8 8 8 10 12 11 16 17 18 16 14 13 9 7 8 8 9 8 7 8 7 10 12 12 10 7 8 8 9 10 12 11 8 6 6 4 5 4 3 3 5 7
Wind_Direction
109 117 112 115 116 122 108 112 101 102 112 133 149 171 160 157 147 148 163 168 153 170 166 165 179 178 160 164 152 152 150 163 159 150 175 174 151 160 118 106 41 60 95 96 117 145 143 118 42 6 41 44 71 79 108 128 141 119 90 85 85 84 82
111 110 107 102 92 83 87 79 93 108 100 79 77 108 139 133 136 140 151 178 186 180 181 191 183 148 145 121 137 154 182 189 186 152 144 174 152 149 123 98 76 100 100 102 113 102 130 111 75 107 101 8 51 53 80 96 113 98 103 104 98 97 93
104 96 98 97 89 100 104 113 118 101 87 77 63 69 72 76 81 88 92 81 74 146 153 148 120 97 93 109 127 148 165 184 161 141 151 167 165 149 149 152 141 140 84 59 44 94 89 107 149 161 153 129 121 233 29 98 113 116 119 107 95 87 80
119 113 101 98 95 87 102 113 115 114 107 91 75 52 68 74 73 53 75 85 73 80 100 104 98 108 100 92 77 79 121 125 120 115 122 150 154 152 154 157 161 166 167 163 183 164 144 122 102 128 123 163 166 146 244 63 108 118 108 101 102 95 96
126 126 129 140 132 134 139 117 115 104 97 93 90 85 50 53 59 79 81 66 58 66 74 89 95 103 111 104 70 49 128 105 107 121 131 146 154 158 166 170 173 172 165 149 171 156 139 155 150 158 165 177 124 208 144 103 106 116 114 114 115 115 113
131 133 144 148 154 150 142 130 117 121 113 94 85 97 97 50 77 78 76 68 63 79 97 93 83 95 116 130 152 152 108 113 129 135 142 160 147 152 183 194 146 145 196 201 150 163 139 145 151 145 191 153 143 133 142 130 109 86 118 126 126 126 127
131 138 149 150 161 154 147 148 139 137 120 128 122 102 98 99 85 95 89 79 71 72 90 108 111 111 116 120 123 121 130 137 111 101 119 130 118 132 136 137 137 164 218 228 186 159 142 137 159 153 155 142 127 146 108 88 132 107 39 98 126 133 127
131 130 141 141 143 129 147 127 126 118 114 107 104 106 91 89 90 80 84 85 66 48 60 86 91 96 101 102 103 109 93 98 100 104 87 87 84 87 89 118 119 102 116 142 125 140 153 152 156 164 139 131 104 39 115 57 60 98 146 97 140 126 131
116 117 109 107 123 127 114 110 111 111 116 114 102 97 95 99 97 91 77 64 59 67 82 103 105 107 106 105 103 108 120 119 99 84 88 90 93 93 96 85 75 71 58 48 61 72 94 127 141 136 143 141 139 134 77 77 55 73 129 113 28 132 140
121 122 121 113 98 90 104 109 110 115 108 104 107 111 108 78 81 91 92 97 94 89 82 95 102 97 97 103 112 105 105 102 96 99 88 87 98 95 86 86 93 80 54 61 64 78 99 112 124 125 146 154 149 135 141 111 111 135 83 136 135 216 143
127 121 112 103 97 97 99 104 106 103 109 110 103 95 96 104 102 95 89 63 49 62 97 92 94 99 99 101 108 111 122 104 88 66 83 97 91 90 90 80 83 76 64 60 60 76 90 99 87 89 87 131 145 145 153 129 116 234 154 22 118 136 169
116 109 103 100 101 101 102 106 111 119 103 98 104 104 99 96 97 96 91 94 94 96 85 93 97 103 109 106 99 102 93 95 100 102 101 99 107 96 94 92 85 75 56 68 66 68 72 82 90 83 77 88 129 129 132 127 112 276 150 130 69 131 148
117 115 114 111 104 104 110 113 112 104 118 113 118 119 115 118 121 113 117 111 104 87 108 115 115 119 112 114 116 113 119 101 103 114 108 108 108 99 101 98 90 103 91 79 69 75 80 91 102 95 92 86 89 107 106 99 112 122 223 161 162 152 142
112 111 104 104 106 106 111 113 116 125 112 126 128 126 138 142 137 140 138 141 123 119 127 132 135 130 122 134 137 138 136 127 130 142 118 96 100 107 98 89 71 56 77 69 45 61 93 96 90 100 113 109 102 113 117 120 123 139 8 145 130 164 155
120 114 114 111 114 117 118 121 125 108 127 166 130 143 151 152 151 148 145 149 148 145 146 145 141 138 150 147 155 150 146 147 140 119 105 117 101 93 99 81 65 65 78 78 51 47 44 64 74 67 64 107 116 127 129 101 132 127 167 310 87 281 72
131 129 118 118 120 119 119 119 115 128 144 169 153 152 158 162 160 151 147 153 154 163 151 130 144 139 143 147 150 151 157 144 131 126 115 116 117 110 82 82 74 70 70 59 46 67 61 67 92 106 106 101 111 129 134 135 126 123 160 205 195 151 205
131 126 120 129 128 131 130 132 126 125 160 166 188 162 174 167 149 154 155 158 167 164 135 137 135 139 137 133 134 142 139 130 137 136 126 125 124 116 118 95 86 90 80 71 48 52 78 98 78 52 120 148 121 109 109 134 137 133 170 155 217 170 206
135 134 134 134 140 140 138 149 144 160 153 178 216 156 202 164 148 160 161 165 160 151 150 142 146 157 134 126 130 132 136 134 139 140 145 141 134 131 129 139 154 108 95 93 46 46 59 72 72 67 46 59 116 121 104 109 118 119 136 163 200 231 206
143 147 146 147 150 151 155 156 169 194 176 206 194 179 181 170 156 161 162 165 154 155 148 147 157 169 158 131 130 137 139 145 142 132 152 148 141 144 145 155 159 145 121 137 150 99 86 86 80 71 51 43 69 76 97 105 109 121 149 171 158 179 224
149 139 137 150 157 154 162 174 173 201 206 204 178 168 178 177 188 153 156 153 149 154 152 141 143 139 130 134 140 134 142 132 130 127 141 156 157 157 158 162 171 162 162 156 144 148 123 105 107 104 102 74 70 92 68 90 131 123 116 117 155 172 190
116 112 103 91 126 164 173 175 189 199 194 187 191 171 175 180 193 160 173 157 165 155 158 154 146 141 133 136 142 126 157 148 152 166 111 119 151 155 118 120 119 129 141 156 157 153 120 128 126 117 140 104 87 79 93 84 71 75 63 87 155 200 227
93 94 89 83 78 84 111 153 203 205 184 180 199 186 184 166 183 174 184 179 169 166 161 175 168 165 163 168 167 162 175 182 176 132 122 128 129 124 132 138 140 140 138 122 107 103 118 145 138 119 109 123 120 114 107 74 100 88 96 107 351 4 32
67 65 79 102 119 93 71 49 35 345 348 326 205 201 188 185 170 188 179 192 184 175 177 180 183 176 172 176 188 187 180 190 174 162 156 153 153 149 153 157 163 147 135 132 127 120 107 89 92 127 160 134 134 122 138 133 119 120 110 73 28 35 25
68 62 38 40 76 84 31 31 23 357 41 72 51 36 30 120 152 177 200 185 183 195 191 188 188 184 178 184 182 185 187 182 174 170 169 167 165 168 165 168 161 148 139 139 144 141 136 141 130 117 92 89 96 146 143 143 186 179 151 125 145 108 115
59 27 27 19 21 28 37 26 2 343 352 6 25 32 28 4 353 219 183 172 163 190 201 308 199 188 183 184 179 180 184 179 182 186 183 179 178 173 176 176 176 171 174 178 166 154 157 146 133 124 123 123 115 85 107 146 149 120 143 136 105 135 129
107 79 316 151 16 28 91 70 350 296 307 8 23 14 31 16 355 350 350 301 242 110 156 140 72 11 226 180 181 178 178 171 176 196 192 189 184 183 181 177 180 193 185 183 169 164 150 121 107 119 118 107 101 123 117 97 95 139 141 117 135 158 158
25 2 343 316 285 198 183 216 227 221 186 39 309 312 320 306 303 359 42 45 64 53 138 152 120 135 151 227 198 170 175 175 182 188 190 190 188 185 185 179 182 194 201 185 183 161 145 142 141 127 122 109 105 79 75 80 80 91 130 145 143 140 236
35 44 47 39 39 28 10 349 315 229 195 211 219 233 245 268 277 265 238 127 87 93 322 89 136 153 179 157 146 291 96 86 77 353 284 280 263 330 286 203 192 197 197 189 190 173 157 158 145 137 127 120 107 91 89 77 83 112 114 115 122 125 120
1 2 15 28 38 34 22 33 24 354 328 299 284 259 258 234 256 267 258 220 169 179 197 174 177 194 215 186 168 183 173 163 185 208 199 235 268 271 255 254 229 210 199 186 201 184 167 153 149 142 133 114 100 96 69 2 350 68 112 123 121 125 135
355 353 357 6 7 9 10 358 1 8 11 343 284 270 253 231 226 231 244 224 202 203 197 208 197 201 210 213 191 207 201 195 204 215 221 201 211 210 208 211 210 200 203 177 177 177 160 153 149 144 139 136 135 116 95 56 50 69 96 106 117 122 127
6 3 358 359 356 352 353 353 348 353 354 342 335 318 287 264 236 222 223 229 209 199 207 215 209 207 209 208 198 204 200 196 204 200 230 256 218 222 236 216 202 201 196 146 124 230 201 166 150 149 143 136 134 122 140 141 93 67 76 93 102 120 128
14 6 1 354 350 347 344 338 331 340 338 335 321 316 321 311 294 274 237 228 211 197 205 223 220 223 219 218 207 212 186 168 198 223 212 233 240 222 234 261 271 263 203 147 159 208 212 186 163 160 156 141 146 164 186 170 145 126 116 90 81 98 92
0 359 351 341 341 335 328 330 328 323 319 315 308 309 309 307 286 268 269 253 217 191 199 211 215 224 229 224 202 181 178 195 209 212 213 211 219 168 10 6 12 347 220 177 178 192 203 192 174 163 149 150 158 179 170 165 169 140 148 145 181 187 197
354 353 348 347 346 343 338 329 323 319 309 309 311 309 308 306 305 285 253 256 235 217 208 203 214 214 220 214 183 183 203 205 206 203 210 214 187 157 142 91 94 51 56 89 144 165 163 184 152 157 151 160 172 156 146 143 163 154 147 168 170 160 112
354 350 342 341 339 331 329 329 326 324 317 313 308 300 298 298 293 293 282 242 234 229 219 209 207 213 212 203 189 190 190 207 201 190 196 197 152 152 146 142 130 122 122 106 75 89 101 104 108 102 124 131 131 133 141 146 144 142 137 109 85 57 57
345 340 338 337 339 335 340 340 336 333 327 320 313 303 296 291 286 287 289 278 245 233 228 229 219 206 203 192 193 193 198 193 191 183 188 187 168 150 131 130 127 143 126 114 108 102 100 101 95 112 125 117 122 126 122 116 113 108 105 119 118 102 69
344 344 343 344 346 348 342 335 327 324 322 319 318 315 305 297 291 288 284 284 269 245 240 232 227 192 187 189 195 197 196 186 178 190 179 159 149 149 144 142 138 134 107 115 119 116 110 104 116 118 101 102 99 98 100 110 121 125 121 103 77 64 67